sat.trackr.live / text

‹ back to catalog

STARLINK-5850

NORAD 57049 · 2023-088B

PAYLOAD ACTIVE UNKNOWN

§ Identity

Operator
Country
US
Launch date
2023-06-22
Launch site
AFWTR
Launch vehicle
Mass (kg)
RCS (m²)

Purposes: comms

External: N2YO · Heavens-Above · Gunter

§ Orbital elements

Epoch: 2026-09-20T21:36:00.825120Z

Period
94.27 min
Inclination
43.0055°
Eccentricity
0.0001863
Mean motion
15.27573952 rev/d
Perigee alt
481.8 km
Apogee alt
484.3 km
Semi-major
6,861.2 km
B*
2.2337e-6
RAAN
88.5360°
Arg perigee
267.5989°
Mean anomaly
92.4650°
Rev number
18,037

§ Raw data

STARLINK-58501 57049U 23088B   26263.90000955 -.00000201  00000+0  22337-5 0  99982 57049  43.0055  88.5360 0001863 267.5989  92.4650 15.27573952180379

JSON: /api/v1/satellites/57049 · /tle

For live sub-satellite position, see the globe view (requires WebGL).

§ Visibility from observer

Set your observer location to see the next 7 days of passes ≥ 10°. The values pass through the URL so the page stays shareable.

No JS? Fill the form by hand. The geolocation button needs JavaScript.